EW3205 Weather Reports


time (UTC)temp
F
wind
direction
speed
knots
gust
knots
rain 1hr
in
rain 24hr
in
rain mn
in
humidity
%
barometer
mb
20260507060054 46 254 0.9 6.1 0.00 0.00 0.00 70 1015.2
20260507054546 45 233 3.5 5.2 0.00 0.00 0.00 74 1015.0
20260507053042 43 197 0.0 1.7 0.00 0.00 0.00 75 1015.0
20260507051541 41 177 0.9 2.6 0.00 0.00 0.00 79 1014.8
20260507050040 39 258 0.0 0.0 0.00 0.00 0.00 84 1014.7
20260507044539 37 258 0.0 0.0 0.00 0.00 0.00 89 1014.6
20260507043038 35 258 0.0 0.0 0.00 0.00 0.00 89 1014.4
20260507041535 34 258 0.0 0.0 0.00 0.00 0.00 89 1014.5
20260507040036 33 258 0.0 0.0 0.00 0.00 0.00 89 1014.5
20260507034535 33 258 0.0 0.0 0.00 0.00 0.00 88 1014.3
20260507033032 32 258 0.0 0.0 0.00 0.00 0.00 87 1014.2
20260507031529 32 258 0.0 0.0 0.00 0.00 0.00 86 1014.2
20260507030028 32 258 0.0 0.0 0.00 0.00 0.00 86 1014.2
20260507024527 32 258 0.0 0.0 0.00 0.00 0.00 86 1014.0
20260507023025 32 258 0.0 0.0 0.00 0.00 0.00 86 1014.0
20260507021525 32 258 0.0 0.0 0.00 0.00 0.00 86 1013.9
20260507020029 33 258 0.0 0.0 0.00 0.00 0.00 85 1013.7
20260507014528 33 258 0.0 0.0 0.00 0.00 0.00 83 1013.7
20260507013039 33 258 0.0 0.9 0.00 0.00 0.00 83 1013.7
20260507011518 34 258 0.0 0.0 0.00 0.00 0.00 81 1013.5
20260507010115 34 258 0.0 1.7 0.00 0.00 0.00 80 1013.4
20260507004512 34 261 0.0 0.9 0.00 0.00 0.00 78 1013.3
20260507003008 35 261 0.0 0.9 0.00 0.00 0.00 78 1013.2
20260507001509 35 261 0.0 0.9 0.00 0.00 0.00 77 1013.2
20260507000004 36 261 0.0 1.7 0.00 0.00 0.00 76 1013.1
20260506234501 37 274 0.0 0.0 0.00 0.00 0.00 75 1013.2
20260506233110 38 274 0.0 0.9 0.00 0.00 0.00 72 1013.2
20260506231601 38 272 0.0 1.7 0.00 0.00 0.00 69 1013.2
20260506230054 39 252 0.0 1.7 0.00 0.00 0.00 67 1013.1
20260506224551 41 283 0.0 1.7 0.00 0.00 0.00 63 1012.9
20260506223047 42 290 0.0 2.6 0.00 0.00 0.00 61 1013.0
20260506221543 43 306 0.0 2.6 0.00 0.00 0.00 60 1012.9
20260506220041 43 297 0.0 3.5 0.00 0.00 0.00 61 1012.8
20260506214542 43 340 0.0 4.3 0.00 0.00 0.00 62 1012.8
20260506213051 43 342 0.0 1.7 0.00 0.00 0.00 65 1012.7
20260506211538 42 319 0.0 1.7 0.00 0.00 0.00 68 1012.5
20260506210037 42 300 0.0 1.7 0.00 0.00 0.00 69 1012.4
20260506204538 41 304 0.0 0.0 0.00 0.00 0.00 69 1012.3
20260506203036 41 304 0.0 0.9 0.00 0.00 0.00 67 1012.1
20260506201540 42 332 0.0 0.0 0.00 0.00 0.00 65 1012.1
20260506200036 44 332 0.0 1.7 0.00 0.00 0.00 64 1012.1
20260506194536 45 333 0.0 2.6 0.00 0.00 0.00 61 1012.1
20260506193037 46 325 0.0 2.6 0.00 0.00 0.00 58 1012.0
20260506191534 46 325 0.0 4.3 0.00 0.00 0.00 57 1012.1
20260506190034 48 340 1.7 7.8 0.00 0.00 0.00 54 1011.9
20260506184546 48 297 0.9 4.3 0.00 0.00 0.00 58 1011.7
20260506183045 48 352 1.7 5.2 0.00 0.00 0.00 59 1011.6
20260506181551 49 298 2.6 7.8 0.00 0.00 0.00 58 1011.6
20260506180035 50 325 1.7 7.0 0.00 0.00 0.00 60 1011.6
20260506174531 51 333 0.9 3.5 0.00 0.00 0.00 58 1011.5
20260506173035 51 286 1.7 10.4 0.00 0.00 0.00 58 1011.6
20260506171530 52 4 0.9 7.8 0.00 0.00 0.00 55 1011.5
20260506170030 52 275 1.7 5.2 0.00 0.00 0.00 53 1011.5
20260506164536 53 283 1.7 7.0 0.00 0.00 0.00 54 1011.5
20260506163029 53 9 1.7 6.1 0.00 0.00 0.00 53 1011.5
20260506161529 54 285 2.6 6.1 0.00 0.00 0.00 51 1011.5
20260506160030 54 325 2.6 7.0 0.00 0.00 0.00 50 1011.5
20260506154528 54 292 0.9 7.0 0.00 0.00 0.00 50 1011.5
20260506153026 54 286 2.6 7.8 0.00 0.00 0.00 46 1011.5
20260506151527 55 44 0.9 7.8 0.00 0.00 0.00 45 1011.5
20260506150031 55 254 0.9 5.2 0.00 0.00 0.00 47 1011.5
20260506144526 55 348 1.7 7.0 0.00 0.00 0.00 45 1011.4
20260506143026 56 249 1.7 8.7 0.00 0.00 0.00 42 1011.5
20260506141523 56 244 1.7 9.6 0.00 0.00 0.00 39 1011.6
20260506140025 56 4 2.6 10.4 0.00 0.00 0.00 38 1011.7
20260506134522 56 346 1.7 9.6 0.00 0.00 0.00 38 1011.5
20260506133021 56 200 3.5 9.6 0.00 0.00 0.00 39 1011.7
20260506131532 57 279 3.5 7.0 0.00 0.00 0.00 35 1011.5
20260506130023 56 244 2.6 8.7 0.00 0.00 0.00 36 1011.6
20260506124519 56 248 2.6 8.7 0.00 0.00 0.00 32 1011.7
20260506123017 57 298 1.7 11.3 0.00 0.00 0.00 33 1011.7
20260506121516 56 236 5.2 9.6 0.00 0.00 0.00 30 1011.8
20260506120019 56 240 5.2 11.3 0.00 0.00 0.00 31 1012.0
20260506114521 58 237 2.6 10.4 0.00 0.00 0.00 32 1011.9
20260506113025 56 288 4.3 12.2 0.00 0.00 0.00 35 1012.0
20260506111513 56 202 7.0 10.4 0.00 0.00 0.00 31 1011.9
20260506110012 56 223 4.3 14.8 0.00 0.00 0.00 31 1012.0
20260506104510 56 240 5.2 10.4 0.00 0.00 0.00 30 1012.0
20260506103012 56 238 6.1 13.0 0.00 0.00 0.00 30 1012.0
20260506101509 56 234 6.1 13.0 0.00 0.00 0.00 30 1012.0
20260506100008 55 236 7.8 11.3 0.00 0.00 0.00 28 1011.9
20260506094504 56 193 5.2 14.8 0.00 0.00 0.00 29 1012.1
20260506093058 55 247 6.1 9.6 0.00 0.00 0.00 32 1012.1
20260506091601 55 196 5.2 9.6 0.00 0.00 0.00 33 1012.0
20260506090100 55 179 4.3 8.7 0.00 0.00 0.00 32 1012.1
20260506084552 54 219 5.2 8.7 0.00 0.00 0.00 30 1012.0
20260506083048 53 182 6.1 10.4 0.00 0.00 0.00 31 1012.2
20260506081543 54 157 3.5 8.7 0.00 0.00 0.00 35 1012.2
20260506073033 51 127 2.6 8.7 0.00 0.00 0.00 35 1012.2
20260506071529 50 72 2.6 7.8 0.00 0.00 0.00 39 1012.3
20260506061515 44 80 0.0 5.2 0.00 0.00 0.00 59 1012.2